Change the Weather History Date:

Thursday, March 13, 2014

  Actual Average Record
Temperature  
Mean Temperature 29 °F 42 °F  
Max Temperature 42 °F 53 °F 80 °F (2007)
Min Temperature 16 °F 31 °F 16 °F (2014)
Degree Days  
Heating Degree Days 36 23  
Month to date heating degree days 332  
Since 1 July heating degree days 4400  
Cooling Degree Days 0 0  
Month to date cooling degree days 0  
Year to date cooling degree days 0  
Moisture  
Dew Point 16 °F    
Average Humidity 58    
Maximum Humidity 81    
Minimum Humidity 41    
Precipitation  
Precipitation 0.00 in 0.12 in 1.12 in (2015)
Month to date precipitation 1.21  
Year to date precipitation 7.28  
Sea Level Pressure  
Sea Level Pressure 30.15 in    
Wind  
Wind Speed 5 mph (SSW)    
Max Wind Speed 14 mph    
Max Gust Speed 20 mph    
Visibility 10 miles    
Events      
T = Trace of Precipitation, MM = Missing Value Source: NWS Daily Summary

Daily Weather History Graph

Daily Weather History Graph

Search for Another Location

Airport or City:

Trip Planner

Search our weather history database for the weather conditions in past years. The results will help you decide how hot, cold, wet, or windy it might be!

Date:

Astronomy

Mar. 13, 2014 Rise Set
Actual Time 8:00 AM EDT 7:51 PM EDT
Civil Twilight 7:34 AM EDT 8:18 PM EDT
Nautical Twilight 7:03 AM EDT 8:49 PM EDT
Astronomical Twilight 6:32 AM EDT 9:20 PM EDT
Moon 5:17 PM EDT (3/13) 6:06 AM EDT (3/13)
Length of Visible Light 12h 43m
Length of Day
11h 50m
Waxing Gibbous, 91% of the Moon is Illuminated
Mar 13
Waxing Gibbous
Mar 16
Full
Mar 23
Last Quarter
Mar 30
New
Apr 7
First Quarter

Hourly Weather History & Observations

Time (EDT) Temp. Windchill Dew Point Humidity Pressure Visibility Wind Dir Wind Speed Gust Speed Precip Events Conditions
12:53 AM 24.1 °F 19.7 °F 18.0 °F 77% 30.10 in 10.0 mi NNW 3.5 mph - N/A   Clear
1:53 AM 24.1 °F 16.0 °F 16.0 °F 71% 30.10 in 10.0 mi NNW 6.9 mph - N/A   Clear
2:53 AM 21.9 °F 15.7 °F 14.0 °F 72% 30.12 in 10.0 mi North 4.6 mph - N/A   Clear
3:53 AM 21.0 °F 11.4 °F 10.9 °F 65% 30.12 in 10.0 mi North 8.1 mph - N/A   Clear
4:53 AM 19.0 °F 13.9 °F 12.0 °F 74% 30.12 in 10.0 mi Variable 3.5 mph - N/A   Clear
5:53 AM 19.0 °F 13.9 °F 10.9 °F 71% 30.14 in 10.0 mi Variable 3.5 mph - N/A   Clear
6:53 AM 18.0 °F - 10.9 °F 74% 30.16 in 10.0 mi Calm Calm - N/A   Clear
7:53 AM 16.0 °F - 10.9 °F 81% 30.19 in 10.0 mi Calm Calm - N/A   Clear
8:53 AM 19.0 °F - 12.9 °F 77% 30.21 in 10.0 mi Calm Calm - N/A   Clear
9:53 AM 21.9 °F - 10.9 °F 63% 30.24 in 10.0 mi Calm Calm - N/A   Clear
10:53 AM 25.0 °F - 9.0 °F 51% 30.24 in 10.0 mi Calm Calm - N/A   Clear
11:53 AM 28.0 °F - 10.9 °F 49% 30.24 in 10.0 mi Calm Calm - N/A   Clear
12:53 PM 30.9 °F 25.2 °F 15.1 °F 52% 30.23 in 10.0 mi SSE 5.8 mph - N/A   Clear
1:53 PM 35.1 °F - 18.0 °F 50% 30.22 in 10.0 mi North - - N/A   Clear
2:53 PM 36.0 °F 29.0 °F 17.1 °F 46% 30.18 in 10.0 mi SW 9.2 mph - N/A   Clear
3:53 PM 39.0 °F 31.8 °F 17.1 °F 41% 30.15 in 10.0 mi WSW 11.5 mph - N/A   Clear
4:53 PM 39.9 °F 32.1 °F 19.0 °F 43% 30.14 in 10.0 mi South 13.8 mph - N/A   Overcast
5:53 PM 42.1 °F 36.1 °F 19.9 °F 41% 30.12 in 10.0 mi SSW 10.4 mph - N/A   Overcast
6:53 PM 41.0 °F 33.9 °F 19.0 °F 41% 30.11 in 10.0 mi South 12.7 mph 19.6 mph N/A   Clear
7:53 PM 39.9 °F 33.9 °F 19.0 °F 43% 30.11 in 10.0 mi South 9.2 mph - N/A   Clear
8:53 PM 37.0 °F 31.0 °F 21.0 °F 52% 30.11 in 10.0 mi South 8.1 mph - N/A   Clear
9:53 PM 36.0 °F 30.3 °F 21.0 °F 55% 30.09 in 10.0 mi South 6.9 mph - N/A   Clear
10:53 PM 36.0 °F 29.0 °F 21.0 °F 55% 30.08 in 10.0 mi South 9.2 mph - N/A   Clear
11:53 PM 35.1 °F 29.3 °F 19.9 °F 54% 30.06 in 10.0 mi SSE 6.9 mph - N/A   Clear